GW4632 Weather Reports


time (UTC)temp
F
wind
direction
speed
knots
gust
knots
rain 1hr
in
rain 24hr
in
rain mn
in
humidity
%
barometer
mb
20260506103026 49 356 5.2 7.0 0.00 0.00 0.00 71 1018.6
20260506101518 50 25 7.0 9.6 0.00 0.00 0.00 71 1018.4
20260506100023 50 339 4.3 7.0 0.00 0.00 0.00 70 1018.4
20260506094524 50 325 3.5 7.0 0.00 0.00 0.00 70 1018.2
20260506093033 50 326 5.2 7.8 0.00 0.00 0.00 69 1018.0
20260506091517 51 339 3.5 6.1 0.00 0.00 0.00 68 1018.0
20260506090023 51 320 4.3 7.8 0.00 0.00 0.00 67 1017.9
20260506084533 51 301 2.6 4.3 0.00 0.00 0.00 67 1017.8
20260506083008 52 299 2.6 6.1 0.00 0.00 0.00 65 1017.8
20260506081513 53 227 2.6 13.0 0.00 0.00 0.00 61 1017.8
20260506073024 55 338 11.3 15.6 0.00 0.00 0.00 58 1016.9
20260506071507 56 325 10.4 15.6 0.00 0.00 0.00 58 1016.9
20260506061527 56 327 11.3 18.2 0.00 0.00 0.00 57 1016.3
20260506044538 57 333 7.8 11.3 0.00 0.07 0.00 45 1015.3
20260506043017 57 335 6.1 9.6 0.00 0.08 0.00 45 1015.1
20260506041520 56 288 2.6 4.3 0.00 0.08 0.00 52 1015.1
20260506040029 58 311 0.9 6.1 0.00 0.09 0.00 47 1015.0
20260506034531 59 288 5.2 11.3 0.00 0.10 0.00 44 1014.5
20260506033028 59 326 5.2 7.0 0.00 0.12 0.00 44 1014.1
20260506031519 59 319 5.2 7.8 0.00 0.12 0.00 47 1014.0
20260506030020 59 275 5.2 7.8 0.00 0.12 0.00 49 1013.8
20260506024528 59 252 6.1 9.6 0.00 0.12 0.00 52 1013.6
20260506023026 60 284 6.1 10.4 0.00 0.12 0.00 50 1013.4
20260506021503 61 281 3.5 8.7 0.00 0.12 0.00 51 1013.4
20260506020003 63 273 5.2 9.6 0.00 0.12 0.00 47 1013.2
20260506014504 64 277 4.3 8.7 0.00 0.19 0.00 39 1013.1
20260506013004 65 285 7.0 11.3 0.00 0.20 0.00 37 1013.1
20260506011509 65 335 5.2 7.8 0.00 0.21 0.00 37 1013.1
20260506010003 65 269 0.9 5.2 0.00 0.24 0.00 38 1013.1
20260506004513 64 290 1.7 4.3 0.00 0.24 0.00 39 1013.2
20260506003005 62 282 2.6 7.0 0.00 0.24 0.00 42 1013.2
20260506001504 64 301 6.1 11.3 0.00 0.24 0.00 37 1013.1
20260506000003 63 48 6.1 9.6 0.00 0.24 0.00 37 1013.1
20260505234504 64 68 2.6 7.0 0.00 0.24 0.00 36 1013.1
20260505233004 62 332 6.1 8.7 0.00 0.24 0.00 37 1013.1
20260505231507 62 315 6.1 10.4 0.00 0.24 0.00 40 1013.1
20260505230007 63 176 4.3 8.7 0.00 0.24 0.00 38 1013.1
20260505224505 63 252 1.7 6.1 0.00 0.24 0.00 40 1013.3
20260505223015 64 8 1.7 4.3 0.00 0.24 0.00 40 1013.4
20260505221504 62 213 0.9 3.5 0.00 0.28 0.00 45 1013.7
20260505220017 61 153 2.6 7.0 0.00 0.35 0.00 49 1013.7
20260505214511 61 191 2.6 6.1 0.00 0.37 0.00 51 1013.8
20260505213006 61 281 3.5 8.7 0.00 0.39 0.00 47 1013.9
20260505211508 61 276 2.6 7.0 0.00 0.39 0.00 49 1013.9
20260505210006 61 281 3.5 7.8 0.00 0.39 0.00 51 1014.0
20260505204510 64 132 2.6 5.2 0.00 0.39 0.00 45 1014.1
20260505203012 59 212 0.9 6.1 0.00 0.39 0.00 54 1014.2
20260505201507 59 335 4.3 6.1 0.00 0.39 0.00 54 1014.3
20260505200008 59 323 6.1 9.6 0.00 0.39 0.00 52 1014.3
20260505194519 57 291 3.5 7.8 0.00 0.39 0.00 57 1014.4
20260505193010 57 163 1.7 9.6 0.00 0.39 0.00 58 1014.3
20260505191517 56 259 2.6 5.2 0.00 0.39 0.00 63 1014.3
20260505190011 54 294 3.5 6.1 0.00 0.39 0.00 65 1014.2
20260505184514 53 360 0.9 5.2 0.00 0.39 0.00 68 1014.2
20260505183017 53 337 4.3 8.7 0.00 0.39 0.00 66 1014.2
20260505181514 52 124 4.3 12.2 0.00 0.39 0.00 71 1014.1
20260505180013 52 292 5.2 10.4 0.00 0.39 0.00 72 1013.9
20260505174516 51 339 7.8 10.4 0.00 0.39 0.00 77 1013.8
20260505173017 50 277 5.2 8.7 0.00 0.39 0.00 76 1013.7
20260505171510 50 278 3.5 6.1 0.00 0.39 0.00 77 1013.6
20260505170017 49 41 3.5 9.6 0.00 0.39 0.00 82 1013.6
20260505164518 48 327 6.1 8.7 0.00 0.39 0.00 82 1013.5
20260505163008 47 42 3.5 6.1 0.00 0.39 0.00 85 1013.5
20260505161507 46 331 1.7 5.2 0.00 0.39 0.00 88 1013.3
20260505153019 44 290 0.9 3.5 0.00 0.39 0.00 90 1012.9
20260505151503 43 355 2.6 4.3 0.00 0.39 0.00 91 1012.8
20260505124535 41 325 1.7 3.5 0.00 0.39 0.00 94 1011.3
20260505123012 41 339 1.7 5.2 0.00 0.39 0.00 94 1011.1
20260505121517 41 320 1.7 4.3 0.00 0.39 0.00 94 1011.3
20260505120023 40 16 4.3 6.1 0.00 0.39 0.00 94 1011.2
20260505114523 40 345 3.5 7.0 0.00 0.39 0.00 94 1010.9
20260505113024 40 292 2.6 5.2 0.00 0.39 0.00 94 1010.9
20260505111512 39 313 1.7 3.5 0.00 0.39 0.00 94 1011.0